[X]judi online uang asli

Jackpot

Texas Poker Multi Jackpot System

Kini Telah hadir Jackpot SUPER ROYAL FLUSH

Kini Telah hadir Jackpot 2000 (khusus table VIP keatas).

Ikutilah global jackpot yang tersedia di system kami, dengan system jackpot terbaru dan pertama di indonesia, anda dapat membeli jackpot dengan harga 100 rupiah saja dan menangkan hadiahnya hingga puluhan juta rupiah.

Jackpot bukanlah suatu keharusan untuk dibeli, namun kami memberikan suatu fitur tambahan untuk member tercinta dari www.99onlinepoker.top.

Terdapat tiga pilihan harga jackpot yang bisa anda beli yaitu :100,500,1000 dan 2000(khusus table VIP Keatas) rupiah.

Hadiah dari Multi jackpot system www.99onlinepoker.top

  1. full house x 10 harga jackpot yang anda beli.
      (contoh:anda membeli 1000 maka:1000 X10 = 10.000)
  2. four of kind x 250 harga jackpot yang anda beli
      (contoh:anda membeli 1000 maka:1000 X250 = 250.000)
  3. Straight flush x 1200
      (contoh:anda membeli 1000 maka:1000 X1200 = 1.200.000)
  4. Royal flush x 10000 harga jackpot yang anda beli
      (contoh:anda membeli 1000 maka:1000 X10000 = 10.000.000)
  5. SUPER ROYAL FLUSH x 30000 harga jackpot yang anda beli
      (contoh:anda membeli 1000 maka:1000 X30000 = 30.000.000)

Kondisi kartu

  1. full house adalah kondisi kartu dimana kartu anda dan kartu tengah dengan total 7 kartu bisa mendapatkan nilai 5 kartu dengan kombinasi 1 tris(three of kind) dan 1 pair, contoh 3 kartu 10 dan 2 kartu 5
  2. Four of kind adalah kondisi kartu dimana kartu anda dan kartu tengah dengan total 7 kartu bisa mendapatkan nilai 5 kartu dengan kombinasi 4 kartu yang sama jumlah dan 1 kartu apapun juga contoh anda mendapatkan 4 buah kartu angka 3 dan 1 kartu apapun.
  3. Staright flush adalah kondisi kartu dimana kartu anda dan kartu tengah dengan total 7 kartu bisa mendapatkan nilai 5 kartu dengan kombinasi seri / staright dengan kembang yang sama contoh : urutan kartu dari angka 5, 6, 7, 8 , 9 10 dengan kembang yg sama misalnya as hati
  4. Royal flush adalah kondisi kartu dimana kartu anda dan kartu tengah dengan total 7 kartu bisa mendapatkan nilai 5 kartu dengan kombinasi seri / staright dengan kembang yang sama tetapi kartu tersebut haruslah dimulai dari 10. contoh 10, Queen, Jack, King dan aces dengan kembang yang sama
  5. Super Royal flush adalah kondisi kartu dimana Kedua kartu anda digabung dengan 3 kartu pertama meja haruslah royal flush. contoh kartu anda 10,Queen kembang sama dan 3 kartu pertama meja adalah Jack, King dan aces dengan kembang yang sama

Demikian adalah penjelasan dari Multi Jackpot www.99onlinepoker.top terima kasih dan selamat bermain salam hoki dari kami

Texas Poker Jackpot Winner

TOP SUPER ROYAL FLUSH
No.TanggalNamaPriceWin
122/09 21:03SAMSUDIN99Super Royal flush6,000,000
222/09 19:41A4627HGSuper Royal flush3,000,000
322/09 10:13THEMIN88Super Royal flush15,000,000
422/09 02:24TAUN101Super Royal flush30,000,000
521/09 14:11ROYALJOZZSuper Royal flush60,000,000
TOP ROYAL FLUSH
No.TanggalNamaPriceWin
122/09 21:29JEMP86Royal flush5,000,000
222/09 21:27BBM22LITERRoyal flush5,000,000
322/09 21:25SIMPANSERoyal flush500,000
422/09 21:20SEPAT93Royal flush2,000,000
522/09 21:18JOANARoyal flush5,000,000
TOP STRAIGHT FLUSH
No.TanggalNamaPriceWin
122/09 21:28POLLUX39Straight Flush600,000
222/09 21:28BIG_STAN8Straight Flush240,000
322/09 21:27SICOBRA22Straight Flush120,000
422/09 21:26VEGASUS88Straight Flush240,000
522/09 21:25SSAALLAStraight Flush240,000
LATEST JACKPOT
No.TanggalNamaPriceWin
122/09 21:31RAJABANGUNFull House1,000
222/09 21:31AS0421Full House10,000
322/09 21:31UCINUMI4Full House1,000
422/09 21:31BOS35000Full House5,000
522/09 21:31SIEN79Full House10,000
622/09 21:31BLOODWARSFull House20,000
722/09 21:31ABOX577Full House20,000
822/09 21:31YPW1WRVCMBFull House2,000
922/09 21:31SELVIANEFull House2,000
1022/09 21:31BABAK31Full House1,000
1122/09 21:31BOLEHLAH11Full House2,000
1222/09 21:31MAN411Full House2,000
1322/09 21:31RODIAN30Full House2,000
1422/09 21:31AK2909Full House2,000
1522/09 21:31N0M0R21Full House5,000
1622/09 21:31CININIWW89Full House2,000
1722/09 21:31WONG242Full House1,000
1822/09 21:31PQI2KR7MM8Full House10,000
1922/09 21:31RABERBOATFull House5,000
2022/09 21:31LEUMIFull House10,000
2122/09 21:31SAY433KP56Four Of A Kind50,000
2222/09 21:31F36847FBFull House1,000
2322/09 21:31JUNGEDFull House1,000
2422/09 21:31DAPOT358Full House2,000
2522/09 21:31SIMBE16Full House5,000
2622/09 21:31JONI_JPFull House2,000
2722/09 21:30FCPANDA17Full House2,000
2822/09 21:30MHI13163Four Of A Kind25,000
2922/09 21:30KASIHAN69Full House10,000
3022/09 21:30SEPT14N_17Full House5,000
3122/09 21:30BECAK77Full House2,000
3222/09 21:30NAIMFATHANFull House2,000
3322/09 21:30KAPIEK02Full House2,000
3422/09 21:30YORN32Full House1,000
3522/09 21:30KOPHIEFull House5,000
3622/09 21:30EXTESIFull House1,000
3722/09 21:30UBS36Full House5,000
3822/09 21:30AMA2121Full House10,000
3922/09 21:30HAYAT00000Full House1,000
4022/09 21:30S2MMYFull House10,000
4122/09 21:30KOTEKAACIIFull House1,000
4222/09 21:30ARONI999Full House2,000
4322/09 21:30A87BAAA3Full House2,000
4422/09 21:30B2044772Full House2,000
4522/09 21:30MARWAN333Full House10,000
4622/09 21:30XG8H8BLDUGFull House5,000
4722/09 21:30M3N9HUN9Full House10,000
4822/09 21:30MAGNUM32Full House1,000
4922/09 21:30AS_1988Full House10,000
5022/09 21:30GAASBUXSFull House5,000

Domino Multi Jackpot System

Ikutilah global jackpot yang tersedia di system kami, dengan system jackpot terbaru dan pertama di indonesia, anda dapat membeli jackpot dengan harga 100 rupiah saja dan menangkan hadiahnya hingga puluhan juta rupiah.

Jackpot bukanlah suatu keharusan untuk dibeli, namun kami memberikan suatu fitur tambahan untuk member tercinta dari www.99onlinepoker.top.

Terdapat tiga pilihan harga jackpot yang bisa anda beli yaitu :100,500 dan 1000 rupiah.

Hadiah dari Multi jackpot system www.99onlinepoker.top

  1. Murni Kecil x 50 harga jackpot yang anda beli.
      (contoh:anda membeli 1000 maka:1000 X 50 = 50.000)
  2. Murni Besar x 50 harga jackpot yang anda beli
      (contoh:anda membeli 1000 maka:1000 X 50 = 50.000)
  3. BALAK x 100 harga jackpot yang anda beli
      (contoh:anda membeli 1000 maka:1000 X 100 = 100.000)
  4. ENAM DEWA x 6666 harga jackpot yang anda beli
      (contoh:anda membeli 1000 maka:1000 X 6666 = 6.666.000)

Demikian adalah penjelasan dari Multi Jackpot www.99onlinepoker.top terima kasih dan selamat bermain salam hoki dari kami

Domino Jackpot Winner

TOP ENAM DEWA
No.TanggalNamaPriceWin
122/09 20:48SINARJYmurni enam6,666,000
222/09 20:26STELEN90murni enam666,600
322/09 19:33MARYANTO70murni enam6,666,000
422/09 19:18ANONIM99murni enam666,600
522/09 18:16MAHO13murni enam3,333,000
TOP BALAK
No.TanggalNamaPriceWin
122/09 21:30ISAF20balak100,000
222/09 21:30SAMPURNA08balak10,000
322/09 21:27KOMALA09balak100,000
422/09 21:24SOLKANbalak50,000
522/09 21:21TILE01balak100,000
LATEST JACKPOT
No.TanggalNamaPriceWin
122/09 21:31HERRY005murni besar50,000
222/09 21:30DEDANTUMmurni kecil50,000
322/09 21:30ISAF20balak100,000
422/09 21:30SAMPURNA08balak10,000
522/09 21:29TEMPALOmurni besar25,000
622/09 21:29GHEMlucky9925,000
722/09 21:28B61OPI79521murni besar50,000
822/09 21:28NAKWD1Mmurni besar50,000
922/09 21:28REZKYPONSEmurni besar50,000
1022/09 21:28ROJACKSEmurni kecil50,000
1122/09 21:28IYAN068murni besar50,000
1222/09 21:27ELORAmurni kecil50,000
1322/09 21:27KOMALA09balak100,000
1422/09 21:26LOHENAmurni kecil25,000
1522/09 21:26UK13333Zlucky9925,000
1622/09 21:25REZKYPONSEmurni kecil50,000
1722/09 21:25MEGHA2607murni kecil25,000
1822/09 21:25SAGOL00murni kecil50,000
1922/09 21:24KAJOL95murni besar5,000
2022/09 21:24PENJOL1975murni kecil50,000
2122/09 21:24SOLKANbalak50,000
2222/09 21:24UJUNGCIPmurni besar25,000
2322/09 21:24DULOH666murni besar5,000
2422/09 21:23NZGDWRVHOLmurni kecil25,000
2522/09 21:22FRISY27murni besar25,000
2622/09 21:22VOL00murni besar50,000
2722/09 21:22JIDAN80murni besar50,000
2822/09 21:22AAAALDSU61murni kecil25,000
2922/09 21:22IWALlucky9950,000
3022/09 21:21WARKIM21lucky9910,000
3122/09 21:21TILE01balak100,000
3222/09 21:21VOL00murni besar50,000
3322/09 21:21HANSPENDOKmurni besar25,000
3422/09 21:20TINTAMAS88balak50,000
3522/09 21:20AS3NG_88murni besar25,000
3622/09 21:20AHMAD35murni kecil50,000
3722/09 21:20HASBIMAmurni kecil50,000
3822/09 21:19KINARIAN16murni kecil50,000
3922/09 21:19ANDREATITAbalak100,000
4022/09 21:19KASKASmurni kecil5,000
4122/09 21:19LAPTONmurni kecil50,000
4222/09 21:18KINGLION99murni besar5,000
4322/09 21:18TUEGAULmurni besar50,000
4422/09 21:17LANCAH229murni kecil25,000
4522/09 21:16SOYOU99balak100,000
4622/09 21:16QQHOKI92murni besar50,000
4722/09 21:16NDRAS88lucky9910,000
4822/09 21:16TIMORTIMURmurni kecil50,000
4922/09 21:16KONG00murni kecil5,000
5022/09 21:15MONKEYZmurni besar50,000

Ceme Multi Jackpot System

Jackpot dilihat dari gabungan kartu pemain dengan kartu bandar. Bandar harus membeli jackpot sebanyak jumlah player yang sedang duduk. Sebagai contoh bila terdapat 3 pemain duduk bermain, dan bandar memutuskan untuk membeli jackpot Rp 1.000, maka pada periode tersebut bandar akan membeli jackpot sebanyak 3xRp1.000 = Rp3.000.

Jackpot bukanlah suatu keharusan untuk dibeli, namun kami memberikan suatu fitur tambahan untuk member tercinta dari www.99onlinepoker.top.

Terdapat tiga pilihan harga jackpot yang bisa anda beli yaitu :100,500 dan 1000 rupiah.

Hadiah dari Multi jackpot system www.99onlinepoker.top

  1. Murni Kecil x 50 harga jackpot yang anda beli.
      (contoh:anda membeli 1000 maka:1000 X 50 = 50.000)
  2. Murni Besar x 50 harga jackpot yang anda beli
      (contoh:anda membeli 1000 maka:1000 X 50 = 50.000)
  3. BALAK x 200 harga jackpot yang anda beli
      (contoh:anda membeli 1000 maka:1000 X 200 = 200.000)
  4. ENAM DEWA x 6666 harga jackpot yang anda beli
      (contoh:anda membeli 1000 maka:1000 X 6666 = 6.666.000)

Demikian adalah penjelasan dari Multi Jackpot www.99onlinepoker.top terima kasih dan selamat bermain salam hoki dari kami

Ceme Jackpot Winner

TOP ENAM DEWA
No.TanggalNamaPriceWin
122/09 20:56RAIJOSSmurni enam6,666,000
222/09 20:56MORRELOmurni enam3,333,000
322/09 20:31KORTOLOmurni enam6,666,000
422/09 20:31NABILAAmurni enam6,666,000
522/09 20:14AXZ442murni enam666,600
TOP BALAK
No.TanggalNamaPriceWin
122/09 21:31BOLON123balak200,000
222/09 21:31GARENG111balak100,000
322/09 21:30JINDANJU5balak200,000
422/09 21:30CATAMKUbalak100,000
522/09 21:30RAWITUJIbalak200,000
LATEST JACKPOT
No.TanggalNamaPriceWin
122/09 21:31W1RO99murni kecil50,000
222/09 21:31AGAY88murni kecil5,000
322/09 21:31BOLON123murni kecil50,000
422/09 21:31BENO88murni kecil50,000
522/09 21:31BOLON123balak200,000
622/09 21:31GARENG111balak100,000
722/09 21:31UZM212murni kecil50,000
822/09 21:30FENGDUmurni kecil50,000
922/09 21:30ARIF58murni besar25,000
1022/09 21:30BP889921murni besar25,000
1122/09 21:30WINDY27murni kecil5,000
1222/09 21:30TUTOOSTERNmurni kecil5,000
1322/09 21:30MOHSEHmurni kecil25,000
1422/09 21:30JINDANJU5balak200,000
1522/09 21:30CATAMKUbalak100,000
1622/09 21:30REKBCA8murni kecil50,000
1722/09 21:30TOKEKMARTmurni kecil5,000
1822/09 21:30SETYA03murni kecil50,000
1922/09 21:30DAGUL11murni kecil50,000
2022/09 21:30FICAS45murni besar5,000
2122/09 21:30BALUZA24murni kecil50,000
2222/09 21:30AGUNG234murni kecil50,000
2322/09 21:30BBEK29murni besar5,000
2422/09 21:30RAWITUJIbalak200,000
2522/09 21:30ICAANNbalak100,000
2622/09 21:30WAHYUEKOSAmurni kecil25,000
2722/09 21:30POROT54murni kecil50,000
2822/09 21:30JINDANJU5balak200,000
2922/09 21:30KING150balak100,000
3022/09 21:30DAJAL909murni kecil50,000
3122/09 21:30MASHER07murni kecil5,000
3222/09 21:30MOKQAFINbalak200,000
3322/09 21:30BARESI99murni besar25,000
3422/09 21:30SUBAEDImurni besar5,000
3522/09 21:294SR116murni kecil50,000
3622/09 21:29LYR03murni besar25,000
3722/09 21:29LYR03murni besar25,000
3822/09 21:29ADITYA0011murni besar5,000
3922/09 21:29Q4PFPSRI33murni kecil50,000
4022/09 21:29IDNGY1818murni besar5,000
4122/09 21:29TOGE31murni kecil25,000
4222/09 21:29E4JGBFASS0murni kecil50,000
4322/09 21:29RAWITUJIbalak200,000
4422/09 21:29KELOR212balak20,000
4522/09 21:29CR7KIPLImurni besar50,000
4622/09 21:29TJEJEPmurni besar25,000
4722/09 21:29C91NI037956murni besar50,000
4822/09 21:29RAJASPORTmurni besar50,000
4922/09 21:29CAMO202murni kecil5,000
5022/09 21:29DOELZ46murni kecil50,000